McCook, NE

6:39 PM CST on December 05, 2019 (GMT -0600)
McCook Municipal

Weather History for KMCK - September, 2019

Change the Weather History Date:

Friday, September 6, 2019

  Actual Average Record
Temperature  
Mean Temperature 74 °F 69 °F  
Max Temperature 86 °F 84 °F 106 °F (2013)
Min Temperature 63 °F 54 °F 34 °F (1956)
Cooling Degree Days 10    
Growing Degree Days 24 (Base 50)    
Moisture  
Dew Point 58 °F    
Average Humidity 65    
Maximum Humidity 93    
Minimum Humidity 31    
Precipitation  
Precipitation 0.00 in 0.04 in 0.27 in (2008)
Month to date precipitation 0.00 0.31  
Year to date precipitation 17.33 18.02  
Sea Level Pressure  
Sea Level Pressure 30.11 in    
Wind  
Wind Speed 8 mph ()    
Max Wind Speed 15 mph    
Max Gust Speed 23 mph    
Visibility 9.8 miles    
Events      
T = Trace of Precipitation, MM = Missing Value Source: Averaged Metar Reports

Daily Weather History Graph

Daily Weather History Graph

Search for Another Location

Airport or City:

Astronomy

Sep. 06, 2019 Rise Set
Actual Time 7:14 AM CDT 8:06 PM CDT
Civil Twilight 6:46 AM CDT 8:33 PM CDT
Nautical Twilight 6:14 AM CDT 9:06 PM CDT
Astronomical Twilight 5:40 AM CDT 9:40 PM CDT
Moon 3:25 PM CDT 12:24 AM CDT
Length of Visible Light 13h 46m
Length of Day
12h 51m
First Quarter, 56% of the Moon is Illuminated
Sep 6
First Quarter
Sep 13
Full
Sep 21
Last Quarter
Sep 28
New
Oct 5
First Quarter

Hourly Weather History & Observations

Time (CDT) Temp. Heat Index Dew Point Humidity Pressure Visibility Wind Dir Wind Speed Gust Speed Precip Events Conditions
12:53 AM 73.0 °F - 69.1 °F 87% 30.03 in 10.0 mi NE 9.2 mph - N/A   Unknown
1:53 AM 71.1 °F - 68.0 °F 90% 30.05 in 10.0 mi NE 8.1 mph - N/A   Unknown
2:53 AM 69.1 °F - 66.9 °F 93% 30.06 in 10.0 mi NE 8.1 mph - N/A   Unknown
3:53 AM 69.1 °F - 66.0 °F 90% 30.05 in 10.0 mi NE 9.2 mph - N/A   Unknown
4:53 AM 66.0 °F - 63.0 °F 90% 30.07 in 10.0 mi NNE 6.9 mph - N/A   Unknown
5:53 AM 64.9 °F - 62.1 °F 90% 30.09 in 10.0 mi North 5.8 mph - N/A   Unknown
6:53 AM 64.0 °F - 60.1 °F 87% 30.12 in 10.0 mi NNE 6.9 mph - N/A   Unknown
7:53 AM 64.0 °F - 60.1 °F 87% 30.15 in 5.0 mi NNE 8.1 mph - N/A   Mist
8:53 AM 64.9 °F - 59.0 °F 81% 30.17 in 10.0 mi NNE 9.2 mph - N/A   Unknown
9:53 AM 71.1 °F - 55.9 °F 59% 30.17 in 10.0 mi NE 13.8 mph - N/A   Unknown
10:53 AM 75.0 °F - 54.0 °F 48% 30.17 in 10.0 mi East 13.8 mph - N/A   Unknown
11:53 AM 79.0 °F - 55.9 °F 45% 30.17 in 10.0 mi ENE 8.1 mph - N/A   Unknown
12:53 PM 82.0 °F 81.2 °F 53.1 °F 37% 30.14 in 10.0 mi East 13.8 mph - N/A   Unknown
1:53 PM 84.9 °F - 51.1 °F 31% 30.13 in 10.0 mi East 12.7 mph - N/A   Unknown
2:53 PM 84.0 °F - 50.0 °F 31% 30.13 in 10.0 mi East 9.2 mph - N/A   Unknown
3:53 PM 84.0 °F - 51.1 °F 32% 30.11 in 10.0 mi East 10.4 mph - N/A   Unknown
4:53 PM 84.0 °F 82.6 °F 54.0 °F 35% 30.09 in 10.0 mi ENE 13.8 mph - N/A   Unknown
5:53 PM 82.0 °F 81.3 °F 54.0 °F 38% 30.06 in 10.0 mi East 15.0 mph 23.0 mph N/A   Unknown
6:53 PM 79.0 °F - 57.0 °F 47% 30.06 in 10.0 mi East 9.2 mph - N/A   Unknown
7:53 PM 73.0 °F - 57.0 °F 57% 30.09 in 10.0 mi ENE 5.8 mph - N/A   Unknown
8:53 PM 69.1 °F - 57.9 °F 68% 30.11 in 10.0 mi East 8.1 mph - N/A   Unknown
9:53 PM 66.9 °F - 59.0 °F 76% 30.11 in 10.0 mi East 6.9 mph - N/A   Unknown
10:53 PM 64.9 °F - 57.9 °F 78% 30.11 in 10.0 mi ENE 6.9 mph - N/A   Unknown
11:53 PM 64.0 °F - 57.9 °F 80% 30.09 in 10.0 mi East 8.1 mph - N/A   Unknown